ARIANE 40 R/B

Last updated on Mon Jun 22 2026 00:02:13 GMT+0000 (Coordinated Universal Time)

1 21610U 91050F 26171.37747017 .00000187 00000+0 68296-4 0 9998 2 21610 98.1874 219.6701 0004341 114.5448 245.6196 14.42958577833801
UTC large
Height (km)
Speed (km/s)
/
Latitude / Longitude
Inclination (degrees)
Orbital Period (minutes)
Azimuth
Elevation
Range (km)
Doppler Factor

Next 0 passes for location: London (51.5072 / 0.1276)

No passes found over London.
ARIANE 40 R/B